MIDAS 3 DEB, 25793

Orbit data source: Space-Track

MIDAS 3 DEB, 25793 is space debris in LEO originally from a launch on Wed, 12 Jul 1961 UTC launched from the Air Force Western Test Range (AFWTR). Debris objects in space refer to the collection of defunct objects orbiting the Earth. Examples of debris include non-operational satellites, rocket bodies, and fragments generated from explosions, collisions, or faulty payload assembly.

Loading next visibility...
Identifier
25793, 1961-018F
Orbit
LEO
Last TLE update
5 days ago
Origin
Manufacturer
Unknown
Mission
Spacecraft
Bus & Motor
Unknown
Mass
Unknown
Launch date (UTC)
1961-07-12 (64 years ago)
Launch vehicle
Unknown
Launch site
Air Force Western Test Range (AFWTR)
Object type
Payload
Rocket body
Debris
Shape & HBR
Unknown
Radar Cross Section
Medium (>0.1 m² and <1 m²)

Expand to show TLE details & history

TLE from 5 days ago
0 MIDAS 3 DEB
1 25793U 61018F   25124.64782469  .00000042  00000-0  14030-1 0  9997
2 25793  91.1315 201.2595 0131334 160.1055 200.5004  8.93205969365472
Epoch: 2025-05-04T15:32Z
Definitive object data (Epoch: 2025-05-04T15:32:52.053Z)
Latitude
0.00001°
Longitude
105.26989°
Altitude
3,557.253 km
Speed
6.296 km/s
True Right ascension
13h 25m 02s
True Declination
0° 00' 00"
Sunlit
Object was in full shadow at TLE epoch
Visualization TLE readout
Latitude
0.90309°
Longitude
105.47648°
Altitude
3,551.16 km
Speed
6.299 km/s
Apparent Right ascension
14h 04m 06s
Apparent Declination
-15° 12' 24"
Sunlit
Object is in full shadow
Visualization observer readout
Local Sidereal Time
03:22:47
Azimuth
40.386° NE
Elevation
-59.911°
Doppler factor
1
Orbital elements
Apogee altitude
3,560.689 km
Perigee altitude
3,303.012 km
Semi-major axis
9,809.988 km
Eccentricity
0.0131334
Inclination
91.1315°
RAAN
201.2595°
Arg. of periapsis
160.1055°
True anomaly
199.98133°
Mean anomaly
200.5004°
Eccentric anomaly
200.24007°
Mean motion
2.23378 °/min
BSTAR
0.01403
Orbital period
161.16 mins
Loading maneuver chart data...
Loading SW <> Apogee altitude chart data...
Loading historical data...
Loading historical data...
Loading historical data...
Loading historical data...
Loading historical data...
Loading historical data...
Loading historical data...
Other satellites on launch #18 in the year 1961 (1961-07-12 UTC)

MIDAS 3 DEB Visibility forecast

Observer location: undefined°, undefined°

Span
Click to sort rows by Start time (UTC) header in descending order
Start Az.
Max El. time (UTC)
Max El. Az.
Max El.
End time (UTC)
End Az.
20 mins2025-05-09 19:58:51.789Z345.078° N2025-05-09 20:08:51.789Z306.523° NW19.745°2025-05-09 20:18:51.789Z267.736° W
30 mins2025-05-10 03:20:51.789Z130.434° SE2025-05-10 03:35:51.789Z64.928° ENE35.114°2025-05-10 03:50:51.789Z4.609° NNE
34 mins2025-05-10 05:57:51.789Z198.217° SSW2025-05-10 06:14:51.789Z276.813° WNW39.889°2025-05-10 06:31:51.789Z352.114° N
27 mins2025-05-10 14:48:51.789Z18.741° NNE2025-05-10 15:01:51.789Z73.435° E26.592°2025-05-10 15:15:51.789Z130.791° SE
32 mins2025-05-10 17:27:51.789Z0.321° NNE2025-05-10 17:43:51.789Z280.325° WNW43.89°2025-05-10 17:59:51.789Z199.976° SSW
|